Location: Cuzcurrita-R�o Tir�n
(42.5415°N, 2.9642°W)
Time: 19:37:54
(UTC+00:00)

CZ-2C R/B - Pass Details

Date: 27 February 2020
Orbit: 641 x 704 km, 98.4° (Epoch: 29 March)

Event Time Altitude Azimuth Distance (km) Brightness Sun altitude
Rises 19:42:10 0° 18° (NNE) 3,048 7.0 -19.9°
Reaches altitude 10° 19:44:28 10° 23° (NNE) 2,138 6.1 -20.3°
Maximum altitude 19:49:02 52° 100° (E) 862 3.8 -21.1°
Drops below altitude 10° 19:53:38 10° 177° (S) 2,153 6.2 -22.0°
Sets 19:55:56 0° 182° (S) 3,071 7.1 -22.4°
